RH
30 31 32 30 28 28 27 28 33 41 43 40 35 27 21 23 26 25 23 22 24 25 26 29 31 31 30 32 33 32 31 29 28 30 33 37 39 40 42 44 47 48 48 47 46 44 41 41 41 41 41 41 40 37 34 32 34 39 40 38 37 36 34 32 31 29 29 32 36 39 41 43 44 47 51 54 51 49 55 63 67 70 73 75 78
31 32 32 30 29 29 29 30 36 43 46 43 39 31 24 25 28 26 24 23 24 27 29 31 32 33 34 36 36 36 35 33 32 33 34 37 40 41 41 44 48 51 50 48 46 47 47 44 43 42 43 42 40 36 35 34 37 41 40 36 34 33 32 31 30 29 30 32 36 40 43 44 44 46 50 54 54 51 53 60 64 66 69 73 76
33 34 34 32 29 28 29 33 38 45 46 42 39 33 27 26 28 27 24 23 24 27 30 31 32 33 35 35 36 37 37 37 36 36 37 39 41 41 41 41 43 46 48 49 49 53 55 51 47 45 43 42 39 34 33 34 37 40 40 36 32 31 31 31 31 31 32 35 38 41 45 47 45 46 50 52 55 55 55 55 60 64 68 73 76
36 37 37 33 29 28 31 35 42 47 44 40 38 35 29 28 30 28 24 23 26 29 31 32 33 34 34 34 35 38 39 39 39 38 38 40 42 43 43 43 42 45 49 50 50 53 55 53 49 45 42 41 38 33 31 33 37 40 40 37 32 31 32 33 34 35 36 38 42 43 46 50 49 47 49 52 53 55 54 51 53 60 66 71 75
40 42 40 33 30 30 33 39 46 49 45 41 38 34 31 32 32 27 24 24 27 30 31 32 33 33 33 35 37 38 38 39 39 40 39 40 42 44 46 46 46 48 51 51 50 50 51 51 47 44 43 42 39 34 31 33 36 38 38 36 33 32 34 35 36 39 40 42 46 47 48 53 53 51 51 54 55 56 56 54 53 57 62 67 71
41 42 40 35 33 34 38 47 54 53 48 44 38 32 31 32 29 25 23 23 27 29 30 31 31 33 35 37 39 39 38 39 40 40 39 41 44 46 48 49 49 49 49 49 47 45 46 46 44 43 45 45 42 39 36 35 35 36 37 36 35 36 37 38 40 45 47 48 50 52 52 55 57 56 55 57 58 58 59 60 59 58 60 61 65
41 43 42 40 41 43 47 55 59 54 47 41 35 29 27 27 24 22 22 23 27 29 30 31 32 34 35 36 37 37 37 38 39 39 39 41 43 46 49 49 48 49 47 45 43 44 43 42 41 44 48 47 45 44 43 41 38 38 39 39 38 40 41 41 44 51 54 55 55 57 57 59 60 62 62 61 59 59 59 61 60 59 60 60 60
43 44 45 49 53 51 51 54 55 50 43 38 33 27 25 24 22 21 21 23 26 27 29 30 31 32 32 31 33 35 36 36 37 38 39 39 39 41 42 42 42 44 44 42 43 45 44 43 44 47 51 50 48 48 47 45 43 44 45 45 44 44 44 45 48 53 58 60 60 60 61 64 66 68 69 67 63 60 59 60 58 58 63 63 60
43 42 47 54 57 55 55 57 55 49 43 37 31 27 25 24 22 20 21 22 24 26 27 29 30 30 29 29 32 34 34 34 34 34 36 36 36 37 37 37 38 41 42 43 45 46 47 49 52 54 54 53 53 52 52 52 53 56 58 58 55 50 47 48 51 55 60 65 67 67 67 69 72 74 74 72 67 63 61 60 57 59 66 67 62
45 43 47 53 55 58 62 60 55 48 41 35 30 27 26 25 22 21 23 25 28 29 30 30 31 32 32 33 35 34 32 31 32 33 35 36 37 37 37 37 39 42 44 46 47 47 50 56 59 58 58 58 58 58 60 61 63 66 70 69 62 54 51 52 53 56 63 70 73 75 75 74 75 78 78 76 70 65 62 60 57 58 66 69 64
47 45 47 52 55 60 61 57 50 44 38 33 29 28 27 25 23 24 26 29 33 34 35 36 37 38 38 38 37 34 31 31 33 35 35 36 37 38 38 39 42 45 48 50 49 49 54 61 63 60 60 60 59 61 64 66 68 70 71 69 62 55 54 55 56 59 67 73 76 78 79 78 76 77 79 79 75 69 64 60 57 57 64 69 66
52 52 53 54 54 57 58 53 46 41 35 31 29 29 29 27 26 27 29 33 37 38 40 43 45 46 45 42 39 37 35 34 35 36 36 36 37 37 39 41 43 46 50 52 51 53 59 64 65 62 60 58 58 59 61 64 65 64 64 63 59 56 57 59 60 64 70 75 77 76 77 79 78 78 79 80 79 73 67 62 56 56 62 68 67
60 61 62 61 59 61 58 49 42 38 33 30 29 29 29 27 28 30 32 35 39 42 45 48 51 53 51 45 42 42 41 38 35 36 37 37 37 38 40 43 45 47 52 53 53 56 61 64 65 64 62 61 59 58 58 58 57 56 57 58 57 57 61 62 65 70 74 78 78 77 78 79 79 79 80 81 79 75 69 63 58 57 62 67 68
67 67 67 66 66 64 54 43 38 35 29 27 28 27 27 29 30 32 35 37 41 45 50 51 52 54 53 50 48 48 48 43 38 38 40 41 41 42 44 47 49 50 53 54 55 58 61 64 64 64 63 63 61 59 57 56 54 53 53 53 54 58 62 65 68 74 80 82 81 79 79 80 79 80 81 80 78 75 70 63 60 60 62 67 69
70 67 69 68 65 58 47 39 36 30 27 27 28 29 31 33 34 36 38 40 43 47 51 53 54 56 57 55 54 53 49 46 45 46 46 47 48 50 51 51 50 51 53 54 56 59 63 64 64 64 63 62 60 58 58 57 54 51 48 48 52 59 64 67 74 79 81 82 82 81 79 81 82 82 82 80 78 76 70 64 61 61 62 65 67
66 64 67 66 59 51 42 37 33 29 28 29 31 32 35 36 38 41 42 42 44 47 50 54 58 59 58 59 61 61 59 59 64 67 66 63 61 60 59 55 51 51 53 55 57 61 66 66 66 66 64 61 58 58 59 57 52 49 47 47 52 60 66 70 77 81 81 81 82 81 80 84 86 85 83 80 77 75 72 65 60 62 64 65 66
65 63 63 57 50 46 41 34 31 30 31 33 35 37 38 39 41 44 45 46 48 49 53 57 62 65 69 74 75 74 72 74 79 82 80 77 73 68 65 59 52 51 55 58 59 62 66 67 66 66 65 61 59 58 58 55 52 49 48 48 53 62 68 71 75 80 82 84 85 84 83 84 85 85 83 79 75 75 72 62 56 59 65 67 67
63 62 57 48 44 44 40 34 33 34 35 37 39 40 41 43 45 47 50 52 54 57 59 61 65 71 78 81 78 72 70 72 74 74 71 70 70 69 65 58 52 51 56 61 62 63 65 65 64 65 65 61 59 58 57 55 54 52 50 49 55 64 69 71 74 78 83 86 86 86 84 82 83 84 82 77 75 74 68 58 54 60 65 66 65
60 57 50 44 43 42 39 38 38 38 39 41 44 48 50 53 55 57 58 58 60 64 64 60 61 66 69 70 67 62 59 58 55 53 53 55 60 64 63 57 53 54 58 63 65 64 63 63 62 64 65 62 58 59 58 57 57 56 52 50 57 65 69 72 76 80 83 85 84 83 83 82 83 86 83 76 73 71 64 57 57 61 64 64 64
54 49 45 43 43 42 43 45 45 45 48 53 61 69 69 65 65 65 65 66 67 67 65 61 59 61 63 65 62 58 53 48 42 40 41 46 52 58 57 54 54 58 61 65 67 65 63 62 61 62 63 61 59 61 61 60 61 58 53 52 60 67 69 73 80 84 85 84 83 84 85 85 85 86 84 78 71 67 63 58 58 63 65 64 63
46 45 45 46 46 47 48 50 51 52 55 57 61 66 66 62 62 64 66 70 72 72 70 64 59 57 59 62 63 59 52 46 40 38 41 46 50 52 53 52 56 61 65 69 69 66 64 61 59 61 62 60 59 61 60 62 65 60 53 55 63 68 70 74 81 85 85 84 85 87 87 87 87 87 86 82 74 68 63 57 58 64 65 60 60
44 45 47 48 49 50 51 51 52 53 54 54 54 56 60 64 66 65 64 68 75 77 71 62 57 58 59 61 65 61 50 42 40 41 44 48 50 50 53 56 61 66 70 71 70 65 61 59 58 59 60 58 58 58 59 64 67 61 54 57 65 68 71 76 82 85 83 84 87 88 87 88 90 90 89 86 79 72 64 56 56 61 60 56 60
45 46 48 50 52 52 51 52 55 55 54 55 56 57 63 69 69 65 64 69 73 71 63 56 55 58 59 60 62 57 47 41 41 43 45 47 50 53 57 60 64 69 71 70 67 62 57 55 56 56 57 57 56 57 60 65 64 57 53 59 66 69 72 77 82 85 84 85 88 88 87 88 91 93 91 88 83 76 67 59 56 57 55 54 60
49 51 52 54 54 53 53 56 59 58 54 54 57 58 60 62 62 63 64 64 61 57 54 54 55 56 58 59 56 51 44 41 42 43 45 48 51 57 62 62 64 68 70 67 62 56 53 54 55 55 55 55 56 58 61 62 57 53 54 60 66 71 75 77 81 85 86 86 87 88 87 88 91 93 92 89 85 79 71 64 59 57 54 55 61
53 53 53 53 53 53 55 56 56 53 50 51 54 54 53 55 58 59 57 52 49 50 53 55 54 55 57 55 50 45 44 44 45 45 47 52 57 61 64 64 63 66 68 64 57 52 53 54 53 52 53 55 59 63 62 58 54 53 56 62 67 73 77 79 81 85 87 87 87 88 88 89 92 92 91 91 88 80 72 68 66 63 60 59 63
56 54 53 54 53 52 53 52 50 49 48 48 48 47 48 52 53 50 48 46 46 49 53 53 51 52 53 50 45 43 45 47 48 49 51 56 61 63 65 66 64 64 65 61 55 54 56 56 53 52 54 59 63 63 59 57 56 55 57 63 69 72 75 79 82 86 88 87 87 88 88 88 90 92 92 93 92 84 76 72 70 69 68 66 64
53 53 53 53 50 47 47 47 48 50 48 46 44 43 44 45 44 43 45 46 46 48 49 50 49 50 51 48 43 44 48 51 53 54 56 59 62 64 67 69 67 63 62 59 57 58 59 55 51 52 55 58 59 57 55 57 58 57 57 63 68 69 73 79 85 88 90 88 87 88 88 88 90 92 92 92 91 87 82 77 73 72 72 71 70
51 53 52 49 44 41 42 46 48 47 44 41 39 39 39 40 40 42 45 47 47 48 48 47 48 49 48 45 45 48 52 54 55 57 58 61 63 63 67 70 66 61 60 60 61 62 59 53 51 51 51 51 49 49 52 56 58 57 57 61 65 68 72 77 82 86 89 89 87 87 88 88 89 91 91 90 89 89 86 81 77 75 74 74 73
55 55 51 44 39 38 42 47 46 42 39 37 37 37 38 39 41 43 46 47 49 49 48 47 48 47 46 46 48 52 55 55 56 57 58 62 63 62 64 67 64 60 60 63 66 64 58 53 52 51 47 44 42 42 45 50 55 58 58 59 61 65 69 73 76 81 86 89 89 88 88 87 88 90 90 89 88 89 90 86 79 76 78 78 76
53 50 45 40 40 42 46 48 46 41 37 36 37 38 40 40 42 44 46 48 49 50 50 50 49 48 47 49 52 56 58 57 56 56 60 63 62 58 62 66 63 60 63 68 70 66 58 53 51 49 45 42 40 38 38 41 48 54 57 57 58 60 64 67 70 76 81 86 88 90 89 88 88 89 89 89 87 89 91 91 85 79 79 81 81
46 45 43 45 47 48 48 46 43 40 38 37 38 39 40 41 43 44 45 46 48 50 51 51 50 50 52 54 56 57 59 58 58 58 61 63 58 56 62 68 65 63 68 74 73 66 57 53 51 47 44 42 39 37 35 36 40 47 52 55 56 57 59 61 64 68 74 78 82 87 88 88 88 88 88 88 88 88 90 92 90 86 83 83 85
43 45 48 51 52 50 48 45 42 40 39 37 38 40 40 41 42 43 45 48 49 51 54 54 53 53 55 57 58 57 58 60 61 60 58 57 55 56 63 69 69 68 73 77 75 68 61 56 51 48 45 42 39 37 37 36 37 41 45 50 53 55 56 57 58 61 65 70 75 80 84 86 88 88 87 86 88 89 89 90 90 90 90 89 87
44 49 54 57 56 53 50 46 41 39 39 38 39 41 42 43 44 46 49 51 52 54 56 57 56 56 57 56 56 56 58 60 59 57 53 54 56 59 65 71 73 73 74 76 73 68 63 58 54 51 49 44 40 37 37 37 38 39 40 42 45 48 51 53 55 57 59 63 68 73 78 82 85 86 86 85 86 88 91 92 89 88 92 95 92
48 52 57 59 58 56 51 44 40 39 39 39 41 43 43 43 45 49 52 53 53 54 57 58 59 58 56 52 51 53 55 56 57 56 55 54 58 64 70 75 77 76 75 73 70 67 63 59 56 54 51 47 42 38 37 37 37 37 37 36 37 39 43 47 50 52 55 59 63 66 70 76 80 83 84 84 85 87 91 94 92 88 90 95 97
52 55 58 59 56 52 46 41 39 40 40 43 46 46 44 44 46 48 50 51 53 55 58 60 61 60 55 52 52 55 57 59 61 62 60 58 62 70 78 81 82 80 78 75 72 69 66 62 59 57 53 49 45 42 38 35 33 31 30 30 30 31 33 36 39 41 44 49 54 58 63 68 73 79 83 84 84 86 90 94 95 93 90 91 96
56 58 60 58 51 45 43 42 42 42 43 46 49 48 47 48 50 50 50 52 55 59 61 62 63 61 58 57 60 62 63 65 66 67 67 67 69 76 81 83 83 83 82 80 76 73 69 65 61 58 55 51 47 43 39 34 30 28 26 25 25 25 26 27 29 30 32 35 40 46 52 58 64 69 76 81 83 85 88 91 93 95 94 91 92
63 62 61 58 51 47 46 46 46 47 48 49 50 50 51 53 55 55 57 58 59 62 64 64 65 65 63 63 65 66 67 69 72 72 71 71 71 73 74 74 75 78 82 82 80 76 72 67 61 56 52 48 45 43 39 35 31 29 27 25 24 23 22 23 24 24 25 28 31 35 40 46 51 56 62 71 78 81 84 86 89 92 94 94 91
66 63 61 59 55 50 47 46 49 52 53 53 54 54 56 58 58 59 61 63 63 63 63 63 66 69 68 67 67 65 65 69 72 72 71 69 67 66 65 66 69 73 76 78 78 75 70 65 60 54 49 45 43 42 39 36 33 31 29 26 25 23 22 20 20 20 21 23 25 28 31 34 39 43 48 56 66 73 78 82 85 88 91 93 92
63 62 62 62 59 52 47 47 52 55 55 55 57 58 59 59 58 59 62 64 64 64 64 66 69 71 70 69 68 66 66 69 71 71 70 68 66 63 62 62 65 68 69 69 68 67 65 63 59 53 47 43 41 39 37 34 32 31 29 27 25 24 22 20 19 18 18 19 20 22 25 27 29 33 37 42 51 60 68 74 79 82 86 90 92
60 63 65 62 57 51 47 49 54 57 56 58 60 61 60 58 57 58 62 63 62 63 66 68 69 69 69 69 68 67 68 70 69 69 69 67 64 63 64 64 64 64 62 60 59 60 61 60 58 52 46 41 38 36 34 31 29 28 27 26 24 22 21 19 19 17 17 17 18 18 19 21 23 26 29 33 39 47 55 64 70 75 80 85 88
61 62 62 57 53 50 49 53 59 60 59 61 64 62 59 58 57 59 61 61 62 62 64 67 67 67 67 69 69 68 68 69 68 67 66 63 61 63 64 63 61 60 58 58 58 59 58 57 53 49 44 39 36 34 32 29 27 25 24 22 21 19 18 16 16 15 15 16 16 15 14 14 17 20 23 27 31 36 43 52 60 66 71 77 83
61 58 57 56 56 53 52 58 63 63 62 64 65 62 59 59 60 61 61 61 62 64 65 66 67 66 66 66 66 65 65 65 66 66 63 60 59 60 59 57 55 55 55 55 55 54 52 50 48 46 42 38 35 33 31 28 25 22 20 18 16 14 13 12 11 11 12 13 13 12 10 10 12 13 16 20 24 29 34 42 51 58 63 68 73
59 57 57 59 59 57 57 62 66 65 64 65 64 60 60 62 64 65 63 62 62 63 63 63 63 62 60 60 60 59 59 59 60 61 60 57 56 55 52 48 46 46 45 44 43 42 41 40 40 39 37 35 33 31 27 24 21 18 16 14 12 11 11 10 9 9 9 10 10 9 8 9 9 9 11 14 19 23 26 32 41 50 56 61 65
59 60 59 60 61 62 64 67 68 67 66 65 63 62 61 63 63 64 64 62 62 61 60 59 58 57 56 55 54 54 54 54 53 54 54 53 51 47 44 41 39 37 35 34 33 33 32 31 30 29 28 27 26 23 19 17 15 13 12 11 11 10 9 9 9 9 9 10 10 8 8 8 8 8 9 11 14 17 19 23 30 38 46 53 60
60 61 62 63 66 68 69 70 69 69 67 66 64 62 61 61 61 62 63 63 61 59 58 57 55 53 52 51 49 49 50 50 49 47 47 47 45 41 39 37 35 34 32 30 29 28 28 26 24 22 21 19 17 14 12 11 10 10 10 10 9 9 9 9 9 9 9 10 10 9 8 8 9 9 9 10 11 14 15 17 20 27 35 43 51
68 69 69 71 73 73 72 71 70 70 68 66 63 62 62 61 60 62 63 62 59 55 53 52 50 48 47 45 43 43 45 45 44 43 42 39 37 35 34 34 33 33 32 30 29 28 25 21 19 17 15 13 11 10 9 9 9 9 9 9 9 9 9 9 10 10 10 10 10 10 10 9 9 9 10 10 11 13 14 13 15 19 26 33 40
70 71 72 74 74 72 71 71 71 71 69 66 63 62 62 60 58 57 56 55 54 52 51 50 48 45 42 40 38 38 40 40 40 39 37 35 33 32 32 33 33 32 31 31 30 27 23 18 14 12 11 10 10 9 9 10 11 11 11 11 11 11 11 11 11 11 11 11 11 11 11 10 10 9 10 10 11 12 12 12 12 15 19 24 30
68 69 71 72 72 71 71 72 72 71 67 63 60 58 57 54 52 51 50 49 49 50 52 52 49 45 41 38 35 34 35 37 38 36 34 33 31 30 31 33 33 32 31 30 26 22 18 15 12 11 10 10 11 12 12 13 13 13 14 14 13 13 13 13 12 13 12 13 13 14 13 12 11 10 10 10 11 12 12 11 11 13 16 18 22
72 74 75 75 75 75 74 72 68 64 59 55 53 51 50 49 48 48 47 47 46 45 46 47 46 43 39 36 33 33 35 37 37 35 33 33 32 30 30 31 30 29 29 28 22 17 15 14 14 14 13 13 15 16 17 17 16 15 15 15 14 14 14 14 13 13 13 13 14 14 13 13 13 12 12 11 12 13 13 12 11 13 15 16 18
73 75 77 77 76 74 69 64 58 54 51 49 49 49 49 49 49 48 47 46 44 42 42 41 39 37 35 34 33 34 36 36 34 32 31 32 31 30 28 27 24 24 25 25 22 19 18 20 21 21 19 18 19 20 20 20 19 17 15 15 15 15 15 14 14 14 14 14 14 14 14 14 14 14 13 13 13 14 13 12 12 14 15 16 18
73 72 72 69 65 61 57 53 52 50 50 49 50 50 51 51 50 48 45 44 42 41 39 38 35 33 33 33 34 35 35 34 32 31 30 29 28 27 26 23 20 18 19 21 21 21 22 24 25 25 23 21 22 22 23 23 22 21 19 17 16 16 16 16 16 15 15 15 15 15 14 14 14 14 14 14 14 14 13 13 14 16 17 17 17